Time,TemperatureF,DewpointF,PressureIn,WindDirection,WindDirectionDegrees,WindSpeedMPH,WindSpeedGustMPH,Humidity,HourlyPrecipIn,Conditions,Clouds,dailyrainin,SoftwareType,DateUTC
2013-07-27 00:01:00,50.1,46.7,30.04,NE,47,0.0,2.0,88,0.00,,---,0.00,VWS V14.01,2013-07-27 05:01:00,
2013-07-27 00:06:00,49.9,46.5,30.04,NE,34,0.0,2.0,88,0.00,,---,0.00,VWS V14.01,2013-07-27 05:06:00,
2013-07-27 00:11:00,49.8,46.4,30.04,NE,52,1.0,2.0,88,0.00,,---,0.00,VWS V14.01,2013-07-27 05:11:00,
2013-07-27 00:17:00,49.8,46.4,30.04,NE,34,1.0,3.0,88,0.00,,---,0.00,VWS V14.01,2013-07-27 05:17:00,
2013-07-27 00:22:00,49.6,46.5,30.04,NE,37,3.0,3.0,89,0.00,,---,0.00,VWS V14.01,2013-07-27 05:22:00,
2013-07-27 00:27:00,49.6,46.5,30.04,NE,41,2.0,6.0,89,0.00,,---,0.00,VWS V14.01,2013-07-27 05:27:00,
2013-07-27 00:32:00,49.6,46.5,30.04,NNE,32,3.0,3.0,89,0.00,,---,0.00,VWS V14.01,2013-07-27 05:32:00,
2013-07-27 00:37:00,49.5,46.4,30.04,NE,45,3.0,5.0,89,0.00,,---,0.00,VWS V14.01,2013-07-27 05:37:00,
2013-07-27 00:42:00,49.5,46.4,30.04,NNE,30,2.0,3.0,89,0.00,,---,0.00,VWS V14.01,2013-07-27 05:42:00,
2013-07-27 00:47:00,49.5,46.4,30.04,NNE,25,3.0,6.0,89,0.00,,---,0.00,VWS V14.01,2013-07-27 05:47:00,
2013-07-27 00:52:00,49.5,46.4,30.04,NE,38,2.0,5.0,89,0.00,,---,0.00,VWS V14.01,2013-07-27 05:52:00,
2013-07-27 00:57:00,49.4,46.6,30.04,NE,45,1.0,5.0,90,0.00,,---,0.00,VWS V14.01,2013-07-27 05:57:00,
2013-07-27 01:02:00,49.4,46.6,30.04,NE,40,1.0,3.0,90,0.00,,---,0.00,VWS V14.01,2013-07-27 06:02:00,
2013-07-27 01:07:00,49.2,46.4,30.04,NE,49,2.0,6.0,90,0.00,,---,0.00,VWS V14.01,2013-07-27 06:07:00,
2013-07-27 01:12:00,49.2,46.4,30.04,NE,51,0.0,3.0,90,0.00,,---,0.00,VWS V14.01,2013-07-27 06:12:00,
2013-07-27 01:17:00,49.2,46.4,30.04,NNE,24,0.0,5.0,90,0.00,,---,0.00,VWS V14.01,2013-07-27 06:17:00,
2013-07-27 01:22:00,49.2,46.4,30.04,NNE,28,1.0,2.0,90,0.00,,---,0.00,VWS V14.01,2013-07-27 06:22:00,
2013-07-27 01:27:00,49.1,46.3,30.04,NE,42,2.0,3.0,90,0.00,,---,0.00,VWS V14.01,2013-07-27 06:27:00,
2013-07-27 01:32:00,49.1,46.3,30.04,NNE,27,2.0,3.0,90,0.00,,---,0.00,VWS V14.01,2013-07-27 06:32:00,
2013-07-27 01:37:00,49.1,46.3,30.04,NE,34,0.0,3.0,90,0.00,,---,0.00,VWS V14.01,2013-07-27 06:37:00,
2013-07-27 01:42:00,49.1,46.3,30.04,NE,38,0.0,3.0,90,0.00,,---,0.00,VWS V14.01,2013-07-27 06:42:00,
2013-07-27 01:47:00,48.9,46.1,30.03,NE,35,0.0,3.0,90,0.00,,---,0.00,VWS V14.01,2013-07-27 06:47:00,
2013-07-27 01:52:00,48.8,46.0,30.03,NE,42,0.0,2.0,90,0.00,,---,0.00,VWS V14.01,2013-07-27 06:52:00,
2013-07-27 01:57:00,48.8,46.3,30.03,North,10,1.0,4.0,91,0.00,,---,0.00,VWS V14.01,2013-07-27 06:57:00,
2013-07-27 02:02:00,48.6,46.1,30.03,NNE,13,1.0,3.0,91,0.00,,---,0.00,VWS V14.01,2013-07-27 07:02:00,
2013-07-27 02:07:00,48.5,46.0,30.03,NNE,17,1.0,3.0,91,0.00,,---,0.00,VWS V14.01,2013-07-27 07:07:00,
2013-07-27 02:12:00,48.5,46.3,30.03,NE,35,1.0,2.0,92,0.00,,---,0.00,VWS V14.01,2013-07-27 07:12:00,
2013-07-27 02:17:00,48.3,46.1,30.03,NE,35,0.0,2.0,92,0.00,,---,0.00,VWS V14.01,2013-07-27 07:17:00,
2013-07-27 02:22:00,48.2,46.0,30.03,NE,35,0.0,2.0,92,0.00,,---,0.00,VWS V14.01,2013-07-27 07:22:00,
2013-07-27 02:27:00,48.2,46.3,30.03,NNE,31,1.0,5.0,93,0.00,,---,0.00,VWS V14.01,2013-07-27 07:27:00,
2013-07-27 02:32:00,48.0,46.1,30.03,North,0,0.0,1.0,93,0.00,,---,0.00,VWS V14.01,2013-07-27 07:32:00,
2013-07-27 02:37:00,48.0,46.1,30.03,NE,40,2.0,3.0,93,0.00,,---,0.00,VWS V14.01,2013-07-27 07:37:00,
2013-07-27 02:42:00,47.9,46.0,30.03,NNE,32,0.0,1.0,93,0.00,,---,0.00,VWS V14.01,2013-07-27 07:42:00,
2013-07-27 02:47:00,47.9,46.0,30.03,North,0,5.0,6.0,93,0.00,,---,0.00,VWS V14.01,2013-07-27 07:47:00,
2013-07-27 02:52:00,47.9,46.0,30.03,NNE,25,0.0,3.0,93,0.00,,---,0.00,VWS V14.01,2013-07-27 07:52:00,
2013-07-27 02:57:00,47.9,46.0,30.03,NNE,17,2.0,7.0,93,0.00,,---,0.00,VWS V14.01,2013-07-27 07:57:00,
2013-07-27 03:02:00,47.7,45.8,30.03,NNE,28,1.0,2.0,93,0.00,,---,0.00,VWS V14.01,2013-07-27 08:02:00,
2013-07-27 03:07:00,47.6,45.7,30.03,NNE,24,5.0,6.0,93,0.00,,---,0.00,VWS V14.01,2013-07-27 08:07:00,
2013-07-27 03:12:00,47.6,45.7,30.03,NNE,23,0.0,3.0,93,0.00,,---,0.00,VWS V14.01,2013-07-27 08:12:00,
2013-07-27 03:17:00,47.6,45.7,30.03,NE,45,1.0,6.0,93,0.00,,---,0.00,VWS V14.01,2013-07-27 08:17:00,
2013-07-27 03:22:00,47.6,45.7,30.03,NNE,21,4.0,5.0,93,0.00,,---,0.00,VWS V14.01,2013-07-27 08:22:00,
2013-07-27 03:27:00,47.4,45.5,30.03,NE,35,3.0,5.0,93,0.00,,---,0.00,VWS V14.01,2013-07-27 08:27:00,
2013-07-27 03:32:00,47.3,45.4,30.03,NNE,30,1.0,1.0,93,0.00,,---,0.00,VWS V14.01,2013-07-27 08:32:00,
2013-07-27 03:37:00,47.3,45.4,30.03,NNE,31,2.0,3.0,93,0.00,,---,0.00,VWS V14.01,2013-07-27 08:37:00,
2013-07-27 03:42:00,47.1,45.2,30.03,NNE,24,1.0,3.0,93,0.00,,---,0.00,VWS V14.01,2013-07-27 08:42:00,
2013-07-27 03:47:00,47.0,45.1,30.03,NNE,25,1.0,3.0,93,0.00,,---,0.00,VWS V14.01,2013-07-27 08:47:00,
2013-07-27 03:52:00,47.0,45.4,30.03,NNE,20,2.0,5.0,94,0.00,,---,0.00,VWS V14.01,2013-07-27 08:52:00,
2013-07-27 03:57:00,47.1,45.5,30.03,NNE,31,2.0,5.0,94,0.00,,---,0.00,VWS V14.01,2013-07-27 08:57:00,
2013-07-27 04:02:00,47.3,45.7,30.02,North,1,5.0,6.0,94,0.00,,---,0.00,VWS V14.01,2013-07-27 09:02:00,
2013-07-27 04:07:00,47.6,46.0,30.02,North,7,1.0,7.0,94,0.00,,---,0.00,VWS V14.01,2013-07-27 09:07:00,
2013-07-27 04:12:00,48.0,46.1,30.02,NNE,23,1.0,4.0,93,0.00,,---,0.00,VWS V14.01,2013-07-27 09:12:00,
2013-07-27 04:17:00,48.2,46.0,30.02,NNE,31,1.0,6.0,92,0.00,,---,0.00,VWS V14.01,2013-07-27 09:17:00,
2013-07-27 04:22:00,48.5,46.3,30.02,NNE,24,1.0,2.0,92,0.00,,---,0.00,VWS V14.01,2013-07-27 09:22:00,
2013-07-27 04:27:00,48.5,46.0,30.02,NNE,18,1.0,6.0,91,0.00,,---,0.00,VWS V14.01,2013-07-27 09:27:00,
2013-07-27 04:32:00,48.6,46.1,30.02,NNE,25,2.0,4.0,91,0.00,,---,0.00,VWS V14.01,2013-07-27 09:32:00,
2013-07-27 04:37:00,48.6,46.1,30.02,NNE,14,2.0,5.0,91,0.00,,---,0.00,VWS V14.01,2013-07-27 09:37:00,
2013-07-27 04:42:00,48.8,46.3,30.02,North,7,3.0,3.0,91,0.00,,---,0.00,VWS V14.01,2013-07-27 09:42:00,
2013-07-27 04:47:00,48.9,46.4,30.03,NE,37,1.0,4.0,91,0.00,,---,0.00,VWS V14.01,2013-07-27 09:47:00,
2013-07-27 04:52:00,48.9,46.4,30.03,NNE,30,2.0,6.0,91,0.00,,---,0.00,VWS V14.01,2013-07-27 09:52:00,
2013-07-27 04:57:00,49.1,46.3,30.03,NNE,24,2.0,6.0,90,0.00,,---,0.00,VWS V14.01,2013-07-27 09:57:00,
2013-07-27 05:02:00,49.2,46.4,30.03,NE,34,4.0,6.0,90,0.00,,---,0.00,VWS V14.01,2013-07-27 10:02:00,
2013-07-27 05:07:00,49.4,46.6,30.03,NNE,18,6.0,6.0,90,0.00,,---,0.00,VWS V14.01,2013-07-27 10:07:00,
2013-07-27 05:12:00,49.5,46.4,30.03,NNE,30,1.0,4.0,89,0.00,,---,0.00,VWS V14.01,2013-07-27 10:12:00,
2013-07-27 05:17:00,49.6,46.5,30.02,North,11,2.0,6.0,89,0.00,,---,0.00,VWS V14.01,2013-07-27 10:17:00,
2013-07-27 05:22:00,49.8,46.7,30.02,NNE,16,3.0,3.0,89,0.00,,---,0.00,VWS V14.01,2013-07-27 10:22:00,
2013-07-27 05:27:00,49.8,46.7,30.02,NNE,17,5.0,5.0,89,0.00,,---,0.00,VWS V14.01,2013-07-27 10:27:00,
2013-07-27 05:32:00,49.8,46.4,30.03,NNE,13,1.0,3.0,88,0.00,,---,0.00,VWS V14.01,2013-07-27 10:32:00,
2013-07-27 05:37:00,49.8,46.1,30.03,North,11,0.0,5.0,87,0.00,,---,0.00,VWS V14.01,2013-07-27 10:37:00,
2013-07-27 05:42:00,49.8,46.1,30.03,NNE,21,1.0,6.0,87,0.00,,---,0.00,VWS V14.01,2013-07-27 10:42:00,
2013-07-27 05:47:00,49.9,46.2,30.03,NNE,21,0.0,6.0,87,0.00,,---,0.00,VWS V14.01,2013-07-27 10:47:00,
2013-07-27 05:52:00,49.9,46.2,30.03,NNE,28,0.0,2.0,87,0.00,,---,0.00,VWS V14.01,2013-07-27 10:52:00,
2013-07-27 05:57:00,49.9,46.2,30.03,North,353,1.0,4.0,87,0.00,,---,0.00,VWS V14.01,2013-07-27 10:57:00,
2013-07-27 06:02:00,49.9,46.2,30.03,North,10,0.0,3.0,87,0.00,,---,0.00,VWS V14.01,2013-07-27 11:02:00,
2013-07-27 06:07:00,49.9,46.2,30.03,NNE,20,2.0,7.0,87,0.00,,---,0.00,VWS V14.01,2013-07-27 11:07:00,
2013-07-27 06:12:00,49.9,46.2,30.03,NNE,30,3.0,3.0,87,0.00,,---,0.00,VWS V14.01,2013-07-27 11:12:00,
2013-07-27 06:17:00,50.1,46.4,30.03,North,11,1.0,5.0,87,0.00,,---,0.00,VWS V14.01,2013-07-27 11:17:00,
2013-07-27 06:22:00,50.1,46.4,30.03,NNE,24,0.0,1.0,87,0.00,,---,0.00,VWS V14.01,2013-07-27 11:22:00,
2013-07-27 06:27:00,50.1,46.4,30.03,NE,49,3.0,6.0,87,0.00,,---,0.00,VWS V14.01,2013-07-27 11:27:00,
2013-07-27 06:32:00,50.2,46.5,30.03,NNE,13,2.0,6.0,87,0.00,,---,0.00,VWS V14.01,2013-07-27 11:32:00,
2013-07-27 06:37:00,50.4,46.4,30.03,NNE,30,2.0,7.0,86,0.00,,---,0.00,VWS V14.01,2013-07-27 11:37:00,
2013-07-27 06:42:00,50.4,46.4,30.03,NNE,31,2.0,6.0,86,0.00,,---,0.00,VWS V14.01,2013-07-27 11:42:00,
2013-07-27 06:47:00,50.5,46.5,30.03,NE,35,3.0,6.0,86,0.00,,---,0.00,VWS V14.01,2013-07-27 11:47:00,
2013-07-27 06:52:00,50.7,46.4,30.03,NE,35,2.0,2.0,85,0.00,,---,0.00,VWS V14.01,2013-07-27 11:52:00,
2013-07-27 06:57:00,50.8,46.5,30.03,North,7,3.0,5.0,85,0.00,,---,0.00,VWS V14.01,2013-07-27 11:57:00,
2013-07-27 07:02:00,51.1,46.4,30.02,NNE,24,5.0,5.0,84,0.00,,---,0.00,VWS V14.01,2013-07-27 12:02:00,
2013-07-27 07:07:00,51.7,46.7,30.02,NNE,16,2.0,6.0,83,0.00,,---,0.00,VWS V14.01,2013-07-27 12:07:00,
2013-07-27 07:12:00,51.9,46.6,30.02,NNE,24,2.0,2.0,82,0.00,,---,0.00,VWS V14.01,2013-07-27 12:12:00,
2013-07-27 07:17:00,52.2,46.5,30.02,North,7,0.0,5.0,81,0.00,,---,0.00,VWS V14.01,2013-07-27 12:17:00,
2013-07-27 07:22:00,52.3,46.7,30.02,North,7,3.0,6.0,81,0.00,,---,0.00,VWS V14.01,2013-07-27 12:22:00,
2013-07-27 07:27:00,52.5,46.5,30.02,NNE,18,6.0,8.0,80,0.00,,---,0.00,VWS V14.01,2013-07-27 12:27:00,
2013-07-27 07:32:00,52.6,46.3,30.02,North,1,0.0,3.0,79,0.00,,---,0.00,VWS V14.01,2013-07-27 12:32:00,
2013-07-27 07:37:00,52.9,46.2,30.02,North,7,5.0,7.0,78,0.00,,---,0.00,VWS V14.01,2013-07-27 12:37:00,
2013-07-27 07:42:00,53.1,46.4,30.02,NE,34,1.0,7.0,78,0.00,,---,0.00,VWS V14.01,2013-07-27 12:42:00,
2013-07-27 07:47:00,53.5,46.5,30.02,North,1,2.0,7.0,77,0.00,,---,0.00,VWS V14.01,2013-07-27 12:47:00,
2013-07-27 07:52:00,53.6,46.2,30.02,NNE,23,4.0,8.0,76,0.00,,---,0.00,VWS V14.01,2013-07-27 12:52:00,
2013-07-27 07:57:00,53.3,45.9,30.02,North,3,3.0,8.0,76,0.00,,---,0.00,VWS V14.01,2013-07-27 12:57:00,
2013-07-27 08:02:00,53.2,45.8,30.02,NE,37,3.0,5.0,76,0.00,,---,0.00,VWS V14.01,2013-07-27 13:02:00,
2013-07-27 08:07:00,53.3,46.3,30.02,North,3,1.0,6.0,77,0.00,,---,0.00,VWS V14.01,2013-07-27 13:07:00,
2013-07-27 08:12:00,53.5,46.1,30.02,North,3,2.0,4.0,76,0.00,,---,0.00,VWS V14.01,2013-07-27 13:12:00,
2013-07-27 08:17:00,53.6,45.9,30.02,North,10,1.0,7.0,75,0.00,,---,0.00,VWS V14.01,2013-07-27 13:17:00,
2013-07-27 08:22:00,53.6,45.9,30.02,NNE,18,2.0,6.0,75,0.00,,---,0.00,VWS V14.01,2013-07-27 13:22:00,
2013-07-27 08:27:00,53.9,46.5,30.02,North,0,2.0,7.0,76,0.00,,---,0.00,VWS V14.01,2013-07-27 13:27:00,
2013-07-27 08:32:00,54.5,46.8,30.02,NNE,13,4.0,5.0,75,0.00,,---,0.00,VWS V14.01,2013-07-27 13:32:00,
2013-07-27 08:37:00,54.8,46.7,30.02,North,353,2.0,8.0,74,0.00,,---,0.00,VWS V14.01,2013-07-27 13:37:00,
2013-07-27 08:42:00,55.6,46.7,30.02,NNE,14,4.0,7.0,72,0.00,,---,0.00,VWS V14.01,2013-07-27 13:42:00,
2013-07-27 08:47:00,55.9,46.7,30.01,North,0,2.0,10.0,71,0.00,,---,0.00,VWS V14.01,2013-07-27 13:47:00,
2013-07-27 08:52:00,56.6,47.3,30.01,NNE,21,2.0,10.0,71,0.00,,---,0.00,VWS V14.01,2013-07-27 13:52:00,
2013-07-27 08:57:00,56.7,45.9,30.01,NNE,28,2.0,10.0,67,0.00,,---,0.00,VWS V14.01,2013-07-27 13:57:00,
2013-07-27 09:02:00,57.0,46.6,30.01,North,8,3.0,12.0,68,0.00,,---,0.00,VWS V14.01,2013-07-27 14:02:00,
2013-07-27 09:07:00,57.2,46.4,30.01,North,0,2.0,12.0,67,0.00,,---,0.00,VWS V14.01,2013-07-27 14:07:00,
2013-07-27 09:12:00,57.5,46.6,30.01,North,11,6.0,6.0,67,0.00,,---,0.00,VWS V14.01,2013-07-27 14:12:00,
2013-07-27 09:17:00,57.8,47.3,30.01,North,11,2.0,13.0,68,0.00,,---,0.00,VWS V14.01,2013-07-27 14:17:00,
2013-07-27 09:22:00,58.1,46.8,30.01,NNE,14,4.0,10.0,66,0.00,,---,0.00,VWS V14.01,2013-07-27 14:22:00,
2013-07-27 09:27:00,58.4,47.5,30.01,NE,45,5.0,11.0,67,0.00,,---,0.00,VWS V14.01,2013-07-27 14:27:00,
2013-07-27 09:32:00,58.6,47.3,30.00,North,7,2.0,8.0,66,0.00,,---,0.00,VWS V14.01,2013-07-27 14:32:00,
2013-07-27 09:37:00,58.9,46.8,30.00,North,7,3.0,11.0,64,0.00,,---,0.00,VWS V14.01,2013-07-27 14:37:00,
2013-07-27 09:42:00,59.0,46.0,30.00,North,10,6.0,13.0,62,0.00,,---,0.00,VWS V14.01,2013-07-27 14:42:00,
2013-07-27 09:47:00,59.3,47.1,30.00,NNE,23,3.0,13.0,64,0.00,,---,0.00,VWS V14.01,2013-07-27 14:47:00,
2013-07-27 09:52:00,59.8,47.2,30.00,North,359,7.0,13.0,63,0.00,,---,0.00,VWS V14.01,2013-07-27 14:52:00,
2013-07-27 09:57:00,60.1,47.5,30.00,NNE,21,3.0,13.0,63,0.00,,---,0.00,VWS V14.01,2013-07-27 14:57:00,
2013-07-27 10:02:00,60.4,47.8,29.99,North,10,5.0,13.0,63,0.00,,---,0.00,VWS V14.01,2013-07-27 15:02:00,
2013-07-27 10:07:00,60.9,47.8,29.99,NNE,23,7.0,13.0,62,0.00,,---,0.00,VWS V14.01,2013-07-27 15:07:00,
2013-07-27 10:12:00,60.7,47.2,29.99,North,359,3.0,8.0,61,0.00,,---,0.00,VWS V14.01,2013-07-27 15:12:00,
2013-07-27 10:17:00,61.0,47.0,29.99,North,0,7.0,16.0,60,0.00,,---,0.00,VWS V14.01,2013-07-27 15:17:00,
2013-07-27 10:22:00,60.9,46.9,29.99,NNE,32,3.0,9.0,60,0.00,,---,0.00,VWS V14.01,2013-07-27 15:22:00,
2013-07-27 10:27:00,61.2,47.7,29.99,North,359,5.0,14.0,61,0.00,,---,0.00,VWS V14.01,2013-07-27 15:27:00,
2013-07-27 10:32:00,61.5,47.1,29.98,North,10,7.0,11.0,59,0.00,,---,0.00,VWS V14.01,2013-07-27 15:32:00,
2013-07-27 10:37:00,61.2,48.5,29.98,North,10,11.0,13.0,63,0.00,,---,0.00,VWS V14.01,2013-07-27 15:37:00,
2013-07-27 10:42:00,62.0,47.5,29.98,North,354,8.0,8.0,59,0.00,,---,0.00,VWS V14.01,2013-07-27 15:42:00,
2013-07-27 10:47:00,61.0,47.0,29.98,NNE,21,10.0,11.0,60,0.00,,---,0.00,VWS V14.01,2013-07-27 15:47:00,
2013-07-27 10:52:00,59.6,45.7,29.98,NNE,31,4.0,10.0,60,0.00,,---,0.00,VWS V14.01,2013-07-27 15:52:00,
2013-07-27 10:57:00,59.5,46.5,29.98,North,4,8.0,17.0,62,0.00,,---,0.00,VWS V14.01,2013-07-27 15:57:00,
2013-07-27 11:02:00,60.1,46.6,29.97,NE,40,2.0,7.0,61,0.00,,---,0.00,VWS V14.01,2013-07-27 16:02:00,
2013-07-27 11:07:00,60.1,47.0,29.97,NE,42,10.0,13.0,62,0.00,,---,0.00,VWS V14.01,2013-07-27 16:07:00,
2013-07-27 11:12:00,60.1,46.2,29.97,NNE,32,11.0,13.0,60,0.00,,---,0.00,VWS V14.01,2013-07-27 16:12:00,
2013-07-27 11:17:00,60.4,46.5,29.98,NE,52,5.0,13.0,60,0.00,,---,0.00,VWS V14.01,2013-07-27 16:17:00,
2013-07-27 11:22:00,60.2,46.3,29.98,NE,35,3.0,10.0,60,0.00,,---,0.00,VWS V14.01,2013-07-27 16:22:00,
2013-07-27 11:27:00,59.9,46.9,29.98,NE,38,5.0,14.0,62,0.00,,---,0.00,VWS V14.01,2013-07-27 16:27:00,
2013-07-27 11:32:00,59.8,46.8,29.97,NE,35,2.0,10.0,62,0.00,,---,0.00,VWS V14.01,2013-07-27 16:32:00,
2013-07-27 11:37:00,60.2,48.0,29.97,NNE,25,3.0,10.0,64,0.00,,---,0.00,VWS V14.01,2013-07-27 16:37:00,
2013-07-27 11:42:00,61.6,47.6,29.97,NE,38,2.0,11.0,60,0.00,,---,0.00,VWS V14.01,2013-07-27 16:42:00,
2013-07-27 11:47:00,61.3,47.3,29.96,NNE,16,6.0,11.0,60,0.00,,---,0.00,VWS V14.01,2013-07-27 16:47:00,
2013-07-27 11:52:00,60.5,47.4,29.96,NNE,28,6.0,8.0,62,0.00,,---,0.00,VWS V14.01,2013-07-27 16:52:00,
2013-07-27 11:57:00,60.1,47.5,29.96,NE,52,5.0,14.0,63,0.00,,---,0.00,VWS V14.01,2013-07-27 16:57:00,
2013-07-27 12:02:00,59.8,46.3,29.97,ENE,72,7.0,8.0,61,0.00,,---,0.00,VWS V14.01,2013-07-27 17:02:00,
2013-07-27 12:07:00,59.6,46.2,29.97,North,357,7.0,17.0,61,0.00,,---,0.00,VWS V14.01,2013-07-27 17:07:00,
2013-07-27 12:12:00,60.2,46.3,29.97,NE,38,6.0,8.0,60,0.00,,---,0.00,VWS V14.01,2013-07-27 17:12:00,
2013-07-27 12:17:00,61.0,47.5,29.96,NE,38,6.0,8.0,61,0.00,,---,0.00,VWS V14.01,2013-07-27 17:17:00,
2013-07-27 12:22:00,62.0,47.5,29.96,NE,41,8.0,13.0,59,0.00,,---,0.00,VWS V14.01,2013-07-27 17:22:00,
2013-07-27 12:27:00,61.8,47.3,29.96,NE,56,5.0,13.0,59,0.00,,---,0.00,VWS V14.01,2013-07-27 17:27:00,
2013-07-27 12:32:00,62.6,47.6,29.96,NE,55,2.0,8.0,58,0.00,,---,0.00,VWS V14.01,2013-07-27 17:32:00,
2013-07-27 12:37:00,63.2,47.7,29.96,NNE,28,11.0,11.0,57,0.00,,---,0.00,VWS V14.01,2013-07-27 17:37:00,
2013-07-27 12:42:00,63.9,46.5,29.96,NE,42,5.0,8.0,53,0.00,,---,0.00,VWS V14.01,2013-07-27 17:42:00,
2013-07-27 12:47:00,64.2,46.2,29.95,North,3,3.0,12.0,52,0.00,,---,0.00,VWS V14.01,2013-07-27 17:47:00,
2013-07-27 12:52:00,64.3,45.8,29.95,NNE,16,12.0,12.0,51,0.00,,---,0.00,VWS V14.01,2013-07-27 17:52:00,
2013-07-27 12:57:00,63.9,44.4,29.95,NE,45,16.0,18.0,49,0.00,,---,0.00,VWS V14.01,2013-07-27 17:57:00,
2013-07-27 13:02:00,64.3,45.8,29.95,North,0,7.0,10.0,51,0.00,,---,0.00,VWS V14.01,2013-07-27 18:02:00,
2013-07-27 13:07:00,64.7,45.1,29.95,NNE,28,10.0,14.0,49,0.00,,---,0.00,VWS V14.01,2013-07-27 18:07:00,
2013-07-27 13:12:00,64.3,44.8,29.95,NNE,13,7.0,12.0,49,0.00,,---,0.00,VWS V14.01,2013-07-27 18:12:00,
2013-07-27 13:17:00,64.5,44.4,29.95,NNE,24,7.0,14.0,48,0.00,,---,0.00,VWS V14.01,2013-07-27 18:17:00,
2013-07-27 13:22:00,64.0,43.9,29.95,NNE,23,7.0,10.0,48,0.00,,---,0.00,VWS V14.01,2013-07-27 18:22:00,
2013-07-27 13:27:00,64.0,45.0,29.95,ENE,69,7.0,12.0,50,0.00,,---,0.00,VWS V14.01,2013-07-27 18:27:00,
2013-07-27 13:32:00,63.9,44.9,29.94,NE,38,1.0,5.0,50,0.00,,---,0.00,VWS V14.01,2013-07-27 18:32:00,
2013-07-27 13:37:00,63.2,43.2,29.94,NNE,21,4.0,8.0,48,0.00,,---,0.00,VWS V14.01,2013-07-27 18:37:00,
2013-07-27 13:42:00,63.2,44.8,29.94,NNE,16,5.0,10.0,51,0.00,,---,0.00,VWS V14.01,2013-07-27 18:42:00,
2013-07-27 13:47:00,63.9,46.5,29.94,NNE,17,6.0,13.0,53,0.00,,---,0.00,VWS V14.01,2013-07-27 18:47:00,
2013-07-27 13:52:00,64.2,45.7,29.94,NNE,16,3.0,7.0,51,0.00,,---,0.00,VWS V14.01,2013-07-27 18:52:00,
2013-07-27 13:57:00,63.4,46.0,29.94,NNE,18,1.0,12.0,53,0.00,,---,0.00,VWS V14.01,2013-07-27 18:57:00,
2013-07-27 14:02:00,62.4,44.0,29.94,North,3,2.0,10.0,51,0.00,,---,0.00,VWS V14.01,2013-07-27 19:02:00,
2013-07-27 14:07:00,62.0,44.7,29.94,NNE,16,5.0,10.0,53,0.00,,---,0.00,VWS V14.01,2013-07-27 19:07:00,
2013-07-27 14:12:00,61.8,45.5,29.94,NNE,14,1.0,4.0,55,0.00,,---,0.00,VWS V14.01,2013-07-27 19:12:00,
2013-07-27 14:17:00,61.6,44.8,29.94,North,3,5.0,11.0,54,0.00,,---,0.00,VWS V14.01,2013-07-27 19:17:00,
2013-07-27 14:22:00,61.6,44.3,29.94,North,4,6.0,11.0,53,0.00,,---,0.00,VWS V14.01,2013-07-27 19:22:00,
2013-07-27 14:27:00,61.5,44.2,29.94,North,4,7.0,11.0,53,0.00,,---,0.00,VWS V14.01,2013-07-27 19:27:00,
2013-07-27 14:32:00,61.6,44.8,29.94,NE,38,4.0,6.0,54,0.00,,---,0.00,VWS V14.01,2013-07-27 19:32:00,
2013-07-27 14:37:00,61.6,44.8,29.94,NNE,13,3.0,8.0,54,0.00,,---,0.00,VWS V14.01,2013-07-27 19:37:00,
2013-07-27 14:42:00,61.6,44.3,29.94,NNE,30,2.0,6.0,53,0.00,,---,0.00,VWS V14.01,2013-07-27 19:42:00,
2013-07-27 14:47:00,61.6,44.8,29.94,NNE,20,5.0,8.0,54,0.00,,---,0.00,VWS V14.01,2013-07-27 19:47:00,
2013-07-27 14:52:00,62.0,45.2,29.94,North,6,8.0,8.0,54,0.00,,---,0.00,VWS V14.01,2013-07-27 19:52:00,
2013-07-27 14:57:00,62.6,46.7,29.94,NNE,14,2.0,8.0,56,0.00,,---,0.00,VWS V14.01,2013-07-27 19:57:00,
2013-07-27 15:02:00,63.7,47.7,29.93,NNE,28,2.0,7.0,56,0.00,,---,0.00,VWS V14.01,2013-07-27 20:02:00,
2013-07-27 15:07:00,64.5,48.0,29.93,ENE,61,2.0,7.0,55,0.00,,---,0.00,VWS V14.01,2013-07-27 20:07:00,
2013-07-27 15:12:00,65.2,47.2,29.93,NNE,30,3.0,6.0,52,0.00,,---,0.00,VWS V14.01,2013-07-27 20:12:00,
2013-07-27 15:17:00,65.8,47.2,29.92,North,10,2.0,7.0,51,0.00,,---,0.00,VWS V14.01,2013-07-27 20:17:00,
2013-07-27 15:22:00,66.0,45.8,29.92,NNE,24,5.0,13.0,48,0.00,,---,0.00,VWS V14.01,2013-07-27 20:22:00,
2013-07-27 15:27:00,66.0,46.3,29.92,North,8,5.0,14.0,49,0.00,,---,0.00,VWS V14.01,2013-07-27 20:27:00,
2013-07-27 15:32:00,66.0,46.8,29.92,NE,34,1.0,8.0,50,0.00,,---,0.00,VWS V14.01,2013-07-27 20:32:00,
2013-07-27 15:37:00,65.6,45.4,29.92,North,350,4.0,16.0,48,0.00,,---,0.00,VWS V14.01,2013-07-27 20:37:00,
2013-07-27 15:42:00,65.5,46.4,29.92,ENE,58,6.0,12.0,50,0.00,,---,0.00,VWS V14.01,2013-07-27 20:42:00,
2013-07-27 15:47:00,65.3,46.2,29.92,NNE,27,7.0,12.0,50,0.00,,---,0.00,VWS V14.01,2013-07-27 20:47:00,
2013-07-27 15:52:00,64.7,45.7,29.92,NNE,28,5.0,12.0,50,0.00,,---,0.00,VWS V14.01,2013-07-27 20:52:00,
2013-07-27 15:57:00,64.2,46.2,29.92,NNE,20,3.0,12.0,52,0.00,,---,0.00,VWS V14.01,2013-07-27 20:57:00,
2013-07-27 16:02:00,63.9,46.0,29.92,NE,37,2.0,6.0,52,0.00,,---,0.00,VWS V14.01,2013-07-27 21:02:00,
2013-07-27 16:07:00,63.9,46.0,29.92,North,10,2.0,7.0,52,0.00,,---,0.00,VWS V14.01,2013-07-27 21:07:00,
2013-07-27 16:12:00,63.9,46.0,29.92,North,6,5.0,10.0,52,0.00,,---,0.00,VWS V14.01,2013-07-27 21:12:00,
2013-07-27 16:17:00,64.7,47.2,29.91,NNE,28,5.0,10.0,53,0.00,,---,0.00,VWS V14.01,2013-07-27 21:17:00,
2013-07-27 16:22:00,65.6,47.0,29.91,North,0,6.0,8.0,51,0.00,,---,0.00,VWS V14.01,2013-07-27 21:22:00,
2013-07-27 16:27:00,65.2,46.1,29.91,NNE,21,1.0,10.0,50,0.00,,---,0.00,VWS V14.01,2013-07-27 21:27:00,
2013-07-27 16:32:00,65.6,48.0,29.90,NNE,18,2.0,10.0,53,0.00,,---,0.00,VWS V14.01,2013-07-27 21:32:00,
2013-07-27 16:37:00,65.8,47.7,29.90,NE,45,2.0,10.0,52,0.00,,---,0.00,VWS V14.01,2013-07-27 21:37:00,
2013-07-27 16:42:00,65.8,48.7,29.90,NNE,18,12.0,12.0,54,0.00,,---,0.00,VWS V14.01,2013-07-27 21:42:00,
2013-07-27 16:47:00,65.5,46.9,29.90,NNE,32,5.0,12.0,51,0.00,,---,0.00,VWS V14.01,2013-07-27 21:47:00,
2013-07-27 16:52:00,64.7,46.2,29.90,North,6,7.0,7.0,51,0.00,,---,0.00,VWS V14.01,2013-07-27 21:52:00,
2013-07-27 16:57:00,64.2,45.7,29.90,NNE,16,6.0,10.0,51,0.00,,---,0.00,VWS V14.01,2013-07-27 21:57:00,
2013-07-27 17:02:00,63.7,45.8,29.90,North,0,3.0,8.0,52,0.00,,---,0.00,VWS V14.01,2013-07-27 22:02:00,
2013-07-27 17:07:00,63.4,45.5,29.90,NNE,28,4.0,8.0,52,0.00,,---,0.00,VWS V14.01,2013-07-27 22:07:00,
2013-07-27 17:12:00,63.2,46.3,29.90,NNE,27,5.0,5.0,54,0.00,,---,0.00,VWS V14.01,2013-07-27 22:12:00,
2013-07-27 17:17:00,63.4,46.0,29.89,North,357,5.0,10.0,53,0.00,,---,0.00,VWS V14.01,2013-07-27 22:17:00,
2013-07-27 17:22:00,63.5,46.6,29.89,NE,44,2.0,5.0,54,0.00,,---,0.00,VWS V14.01,2013-07-27 22:22:00,
2013-07-27 17:27:00,63.7,47.2,29.89,NNE,18,2.0,7.0,55,0.00,,---,0.00,VWS V14.01,2013-07-27 22:27:00,
2013-07-27 17:32:00,63.9,46.5,29.89,North,7,3.0,8.0,53,0.00,,---,0.00,VWS V14.01,2013-07-27 22:32:00,
2013-07-27 17:37:00,63.9,47.0,29.89,NNE,17,1.0,11.0,54,0.00,,---,0.00,VWS V14.01,2013-07-27 22:37:00,
2013-07-27 17:42:00,63.7,46.8,29.89,NNE,28,0.0,5.0,54,0.00,,---,0.00,VWS V14.01,2013-07-27 22:42:00,
2013-07-27 17:47:00,63.7,47.7,29.89,NNE,28,0.0,5.0,56,0.00,,---,0.00,VWS V14.01,2013-07-27 22:47:00,
2013-07-27 17:52:00,63.4,47.9,29.89,NNE,23,0.0,2.0,57,0.00,,---,0.00,VWS V14.01,2013-07-27 22:52:00,
2013-07-27 17:57:00,63.2,48.2,29.89,NNE,27,0.0,3.0,58,0.00,,---,0.00,VWS V14.01,2013-07-27 22:57:00,
2013-07-27 18:02:00,62.7,48.2,29.89,NE,44,1.0,3.0,59,0.00,,---,0.00,VWS V14.01,2013-07-27 23:02:00,
2013-07-27 18:07:00,62.6,48.5,29.89,NE,44,0.0,3.0,60,0.00,,---,0.00,VWS V14.01,2013-07-27 23:07:00,
2013-07-27 18:12:00,62.6,49.0,29.89,NE,52,1.0,3.0,61,0.00,,---,0.00,VWS V14.01,2013-07-27 23:12:00,
2013-07-27 18:17:00,62.4,48.3,29.89,NE,48,1.0,4.0,60,0.00,,---,0.00,VWS V14.01,2013-07-27 23:17:00,
2013-07-27 18:22:00,62.4,48.3,29.89,NE,54,1.0,3.0,60,0.00,,---,0.00,VWS V14.01,2013-07-27 23:22:00,
2013-07-27 18:27:00,62.6,49.0,29.89,ENE,62,2.0,3.0,61,0.00,,---,0.00,VWS V14.01,2013-07-27 23:27:00,
2013-07-27 18:32:00,62.4,48.3,29.89,NE,48,0.0,4.0,60,0.00,,---,0.00,VWS V14.01,2013-07-27 23:32:00,
2013-07-27 18:37:00,62.3,48.7,29.89,NE,52,1.0,4.0,61,0.00,,---,0.00,VWS V14.01,2013-07-27 23:37:00,
2013-07-27 18:42:00,62.1,48.1,29.89,NE,55,0.0,1.0,60,0.00,,---,0.00,VWS V14.01,2013-07-27 23:42:00,
2013-07-27 18:47:00,61.8,48.2,29.89,NE,52,0.0,3.0,61,0.00,,---,0.00,VWS V14.01,2013-07-27 23:47:00,
2013-07-27 18:52:00,61.6,48.5,29.89,NE,52,0.0,2.0,62,0.00,,---,0.00,VWS V14.01,2013-07-27 23:52:00,
2013-07-27 18:57:00,61.5,48.4,29.89,NE,52,1.0,2.0,62,0.00,,---,0.00,VWS V14.01,2013-07-27 23:57:00,
2013-07-27 19:02:00,61.3,48.6,29.90,ENE,66,6.0,10.0,63,0.00,,---,0.00,VWS V14.01,2013-07-28 00:02:00,
2013-07-27 19:07:00,61.3,48.6,29.90,East,80,3.0,10.0,63,0.00,,---,0.00,VWS V14.01,2013-07-28 00:07:00,
2013-07-27 19:12:00,61.2,48.5,29.90,ENE,69,3.0,5.0,63,0.00,,---,0.00,VWS V14.01,2013-07-28 00:12:00,
2013-07-27 19:17:00,60.9,48.2,29.90,East,83,4.0,8.0,63,0.00,,---,0.00,VWS V14.01,2013-07-28 00:17:00,
2013-07-27 19:22:00,60.9,48.2,29.90,ENE,68,0.0,7.0,63,0.00,,---,0.00,VWS V14.01,2013-07-28 00:22:00,
2013-07-27 19:27:00,60.9,48.2,29.90,ENE,62,2.0,7.0,63,0.00,,---,0.00,VWS V14.01,2013-07-28 00:27:00,
2013-07-27 19:32:00,60.7,48.0,29.90,ENE,69,3.0,3.0,63,0.00,,---,0.00,VWS V14.01,2013-07-28 00:32:00,
2013-07-27 19:37:00,60.7,48.5,29.90,NNE,25,1.0,6.0,64,0.00,,---,0.00,VWS V14.01,2013-07-28 00:37:00,
2013-07-27 19:42:00,60.5,48.3,29.90,East,86,0.0,5.0,64,0.00,,---,0.00,VWS V14.01,2013-07-28 00:42:00,
2013-07-27 19:47:00,60.4,48.2,29.90,NE,42,5.0,8.0,64,0.00,,---,0.00,VWS V14.01,2013-07-28 00:47:00,
2013-07-27 19:52:00,60.1,46.6,29.90,NNE,30,4.0,9.0,61,0.00,,---,0.00,VWS V14.01,2013-07-28 00:52:00,
2013-07-27 19:57:00,60.1,46.6,29.90,ENE,73,2.0,10.0,61,0.00,,---,0.00,VWS V14.01,2013-07-28 00:57:00,
2013-07-27 20:02:00,59.9,46.4,29.90,NE,37,4.0,7.0,61,0.00,,---,0.00,VWS V14.01,2013-07-28 01:02:00,
2013-07-27 20:07:00,59.8,46.3,29.90,ENE,73,4.0,8.0,61,0.00,,---,0.00,VWS V14.01,2013-07-28 01:07:00,
2013-07-27 20:12:00,59.6,46.2,29.90,NE,40,4.0,7.0,61,0.00,,---,0.00,VWS V14.01,2013-07-28 01:12:00,
2013-07-27 20:17:00,59.6,46.6,29.90,NE,49,5.0,8.0,62,0.00,,---,0.00,VWS V14.01,2013-07-28 01:17:00,
2013-07-27 20:22:00,59.5,46.5,29.90,NE,52,5.0,8.0,62,0.00,,---,0.00,VWS V14.01,2013-07-28 01:22:00,
2013-07-27 20:27:00,59.3,46.3,29.90,NNE,24,7.0,10.0,62,0.00,,---,0.00,VWS V14.01,2013-07-28 01:27:00,
2013-07-27 20:32:00,59.2,46.6,29.90,NE,52,3.0,8.0,63,0.00,,---,0.00,VWS V14.01,2013-07-28 01:32:00,
2013-07-27 20:37:00,59.0,45.6,29.90,NE,54,2.0,11.0,61,0.00,,---,0.00,VWS V14.01,2013-07-28 01:37:00,
2013-07-27 20:42:00,58.9,45.5,29.90,ENE,65,5.0,8.0,61,0.00,,---,0.00,VWS V14.01,2013-07-28 01:42:00,
2013-07-27 20:47:00,58.9,45.5,29.90,NE,56,2.0,9.0,61,0.00,,---,0.00,VWS V14.01,2013-07-28 01:47:00,
2013-07-27 20:52:00,58.7,45.7,29.90,NNE,25,5.0,7.0,62,0.00,,---,0.00,VWS V14.01,2013-07-28 01:52:00,
2013-07-27 20:57:00,58.6,45.6,29.90,NNE,14,5.0,11.0,62,0.00,,---,0.00,VWS V14.01,2013-07-28 01:57:00,
2013-07-27 21:02:00,58.6,45.6,29.90,North,6,4.0,8.0,62,0.00,,---,0.00,VWS V14.01,2013-07-28 02:02:00,
2013-07-27 21:07:00,58.6,45.6,29.90,NNE,24,6.0,10.0,62,0.00,,---,0.00,VWS V14.01,2013-07-28 02:07:00,
2013-07-27 21:12:00,58.4,45.5,29.90,NE,41,6.0,13.0,62,0.00,,---,0.00,VWS V14.01,2013-07-28 02:12:00,
2013-07-27 21:17:00,58.4,45.0,29.90,North,0,7.0,13.0,61,0.00,,---,0.00,VWS V14.01,2013-07-28 02:17:00,
2013-07-27 21:22:00,58.4,45.0,29.90,NE,37,5.0,10.0,61,0.00,,---,0.00,VWS V14.01,2013-07-28 02:22:00,
2013-07-27 21:27:00,58.1,44.7,29.90,NE,35,6.0,14.0,61,0.00,,---,0.00,VWS V14.01,2013-07-28 02:27:00,
2013-07-27 21:32:00,57.6,44.3,29.91,NNE,25,6.0,12.0,61,0.00,,---,0.00,VWS V14.01,2013-07-28 02:32:00,
2013-07-27 21:37:00,57.5,44.6,29.91,NE,55,4.0,12.0,62,0.00,,---,0.00,VWS V14.01,2013-07-28 02:37:00,
2013-07-27 21:42:00,57.3,44.8,29.91,NE,35,6.0,8.0,63,0.00,,---,0.00,VWS V14.01,2013-07-28 02:42:00,
2013-07-27 21:47:00,57.3,44.8,29.91,NE,48,3.0,10.0,63,0.00,,---,0.00,VWS V14.01,2013-07-28 02:47:00,
2013-07-27 21:52:00,57.2,45.2,29.91,NE,44,5.0,8.0,64,0.00,,---,0.00,VWS V14.01,2013-07-28 02:52:00,
2013-07-27 21:57:00,57.2,45.2,29.91,ENE,59,5.0,11.0,64,0.00,,---,0.00,VWS V14.01,2013-07-28 02:57:00,
2013-07-27 22:02:00,56.9,45.3,29.91,ENE,66,5.0,7.0,65,0.00,,---,0.00,VWS V14.01,2013-07-28 03:02:00,
2013-07-27 22:07:00,56.5,45.7,29.91,NE,37,1.0,8.0,67,0.00,,---,0.00,VWS V14.01,2013-07-28 03:07:00,
2013-07-27 22:12:00,56.2,45.0,29.91,NE,45,11.0,11.0,66,0.00,,---,0.00,VWS V14.01,2013-07-28 03:12:00,
2013-07-27 22:17:00,55.9,44.7,29.92,NE,34,6.0,11.0,66,0.00,,---,0.00,VWS V14.01,2013-07-28 03:17:00,
2013-07-27 22:22:00,55.9,44.3,29.92,NNE,20,8.0,10.0,65,0.00,,---,0.00,VWS V14.01,2013-07-28 03:22:00,
2013-07-27 22:27:00,55.7,44.1,29.92,NE,48,8.0,16.0,65,0.00,,---,0.00,VWS V14.01,2013-07-28 03:27:00,
2013-07-27 22:32:00,55.6,44.0,29.92,North,356,6.0,10.0,65,0.00,,---,0.00,VWS V14.01,2013-07-28 03:32:00,
2013-07-27 22:37:00,55.4,44.2,29.92,NE,45,5.0,13.0,66,0.00,,---,0.00,VWS V14.01,2013-07-28 03:37:00,
2013-07-27 22:42:00,55.1,43.6,29.92,NNE,30,9.0,10.0,65,0.00,,---,0.00,VWS V14.01,2013-07-28 03:42:00,
2013-07-27 22:47:00,55.0,43.9,29.93,East,80,2.0,11.0,66,0.00,,---,0.00,VWS V14.01,2013-07-28 03:47:00,
2013-07-27 22:52:00,54.5,43.8,29.93,NE,44,7.0,7.0,67,0.00,,---,0.00,VWS V14.01,2013-07-28 03:52:00,
2013-07-27 22:57:00,54.2,43.9,29.93,NE,49,3.0,8.0,68,0.00,,---,0.00,VWS V14.01,2013-07-28 03:57:00,
2013-07-27 23:01:00,54.1,43.8,29.93,ENE,64,5.0,7.0,68,0.00,,---,0.00,VWS V14.01,2013-07-28 04:01:00,
2013-07-27 23:06:00,53.6,44.1,29.93,ENE,58,2.0,7.0,70,0.00,,---,0.00,VWS V14.01,2013-07-28 04:06:00,
2013-07-27 23:11:00,53.3,44.2,29.93,NE,48,2.0,6.0,71,0.00,,---,0.00,VWS V14.01,2013-07-28 04:11:00,
2013-07-27 23:16:00,53.1,44.3,29.93,NE,34,3.0,8.0,72,0.00,,---,0.00,VWS V14.01,2013-07-28 04:16:00,
2013-07-27 23:21:00,52.8,44.4,29.93,NE,56,2.0,3.0,73,0.00,,---,0.00,VWS V14.01,2013-07-28 04:21:00,
2013-07-27 23:26:00,52.5,44.5,29.93,ENE,61,0.0,6.0,74,0.00,,---,0.00,VWS V14.01,2013-07-28 04:26:00,
2013-07-27 23:31:00,52.2,44.5,29.93,NE,56,4.0,6.0,75,0.00,,---,0.00,VWS V14.01,2013-07-28 04:31:00,
2013-07-27 23:37:00,52.0,44.3,29.93,NNE,27,6.0,8.0,75,0.00,,---,0.00,VWS V14.01,2013-07-28 04:37:00,
2013-07-27 23:42:00,51.9,44.2,29.93,NE,48,3.0,3.0,75,0.00,,---,0.00,VWS V14.01,2013-07-28 04:42:00,
2013-07-27 23:47:00,51.7,44.0,29.93,NNE,32,6.0,9.0,75,0.00,,---,0.00,VWS V14.01,2013-07-28 04:47:00,
2013-07-27 23:52:00,51.7,44.0,29.93,NE,42,3.0,5.0,75,0.00,,---,0.00,VWS V14.01,2013-07-28 04:52:00,
2013-07-27 23:57:00,51.6,44.0,29.93,NE,56,6.0,7.0,75,0.00,,---,0.00,VWS V14.01,2013-07-28 04:57:00,